ANA255 RJFF-RJTT

Flight info

Callsign ANA255
Flight time 1h 24m
Altitude 37000
Route IPRIR Y231 OMKAT Y235 FLUTE Y23 ARTIC Y71 XAC
Aircraft A320/M-SDE3FGHIRWY/LB1

Departure

Time 2026-05-08 11:57
Airport Fukuoka Airport (RJFF)

Arrival

Time 2026-05-08 13:22
Airport Tokyo Haneda International Airport (RJTT)
Time Latitude Longitude Altitude Speed Heading
2026-05-08 11:11 33.59838 130.44636 7 ft 0 kts 60°
2026-05-08 11:42 33.59829 130.44616 25 ft 4 kts 60°
2026-05-08 11:42 33.59815 130.44589 26 ft 4 kts 60°
2026-05-08 11:42 33.59804 130.44566 26 ft 4 kts 49°
2026-05-08 11:43 33.59784 130.44546 25 ft 4 kts 24°
2026-05-08 11:43 33.59770 130.44539 25 ft 1 kts 21°
2026-05-08 11:43 33.59769 130.44539 26 ft 0 kts 21°
2026-05-08 11:45 33.59783 130.44545 25 ft 10 kts 19°
2026-05-08 11:45 33.59793 130.44524 26 ft 4 kts 207°
2026-05-08 11:45 33.59717 130.44533 25 ft 13 kts 162°
2026-05-08 11:46 33.59642 130.44580 29 ft 11 kts 149°
2026-05-08 11:46 33.59579 130.44624 30 ft 10 kts 150°
2026-05-08 11:46 33.59525 130.44660 28 ft 8 kts 150°
2026-05-08 11:46 33.59482 130.44690 29 ft 7 kts 150°
2026-05-08 11:47 33.59405 130.44742 27 ft 16 kts 150°
2026-05-08 11:47 33.59271 130.44833 28 ft 29 kts 149°
2026-05-08 11:47 33.59115 130.44939 29 ft 26 kts 152°
2026-05-08 11:47 33.59016 130.45006 30 ft 0 kts 149°
2026-05-08 11:54 33.58992 130.45023 30 ft 16 kts 149°
2026-05-08 11:55 33.58825 130.45135 31 ft 32 kts 152°
2026-05-08 11:55 33.58632 130.45265 31 ft 32 kts 146°
2026-05-08 11:55 33.58444 130.45399 33 ft 23 kts 151°
2026-05-08 11:55 33.58324 130.45459 35 ft 15 kts 187°
2026-05-08 11:56 33.58312 130.45377 34 ft 11 kts 294°
2026-05-08 11:56 33.58372 130.45271 35 ft 20 kts 306°
2026-05-08 11:56 33.58555 130.45092 32 ft 65 kts 332°
2026-05-08 11:56 33.59149 130.44691 27 ft 128 kts 330°
2026-05-08 11:57 33.60057 130.44065 202 ft 160 kts 327°
2026-05-08 11:57 33.60995 130.43439 1064 ft 155 kts 326°
2026-05-08 11:57 33.61954 130.42785 1963 ft 161 kts 325°
2026-05-08 11:57 33.62940 130.42082 2741 ft 171 kts 326°
2026-05-08 11:58 33.64062 130.41306 3379 ft 199 kts 328°
2026-05-08 11:58 33.65424 130.40699 4218 ft 219 kts 358°
2026-05-08 11:58 33.66855 130.41307 5560 ft 228 kts 37°
2026-05-08 11:59 33.68620 130.44577 8065 ft 243 kts 59°
2026-05-08 11:59 33.69051 130.46606 9132 ft 263 kts 86°
2026-05-08 11:59 33.68748 130.48831 10143 ft 279 kts 109°
2026-05-08 11:59 33.67758 130.50859 11092 ft 286 kts 135°
2026-05-08 12:00 33.66178 130.52290 12117 ft 285 kts 155°
2026-05-08 12:00 33.64445 130.53478 13187 ft 288 kts 159°
2026-05-08 12:00 33.62621 130.54469 14174 ft 289 kts 165°
2026-05-08 12:00 33.60750 130.55396 15062 ft 293 kts 166°
2026-05-08 12:01 33.58839 130.56343 15621 ft 306 kts 166°
2026-05-08 12:01 33.56791 130.57349 16021 ft 331 kts 166°
2026-05-08 12:01 33.54572 130.58438 16406 ft 356 kts 165°
2026-05-08 12:01 33.52203 130.59610 16741 ft 380 kts 165°
2026-05-08 12:02 33.49731 130.60845 17252 ft 397 kts 164°
2026-05-08 12:02 33.47168 130.62156 18060 ft 406 kts 162°
2026-05-08 12:02 33.44682 130.63889 18835 ft 421 kts 151°
2026-05-08 12:02 33.42412 130.66195 19412 ft 433 kts 140°
2026-05-08 12:03 33.40432 130.68969 19950 ft 442 kts 135°
2026-05-08 12:03 33.38484 130.71834 20484 ft 445 kts 136°
2026-05-08 12:03 33.36522 130.74722 21004 ft 451 kts 134°
2026-05-08 12:03 33.35332 130.76777 21339 ft 458 kts 127°
2026-05-08 12:04 33.33423 130.81436 22014 ft 473 kts 114°
2026-05-08 12:04 33.32789 130.83947 22329 ft 480 kts 107°
2026-05-08 12:04 33.32291 130.87926 22789 ft 489 kts 95°
2026-05-08 12:04 33.32392 130.92009 23236 ft 495 kts 83°
2026-05-08 12:05 33.33050 130.96070 23651 ft 500 kts 76°
2026-05-08 12:05 33.33820 131.00156 24019 ft 504 kts 76°
2026-05-08 12:05 33.34586 131.04267 24421 ft 507 kts 77°
2026-05-08 12:05 33.35348 131.08401 24819 ft 510 kts 77°
2026-05-08 12:06 33.36110 131.12565 25204 ft 513 kts 77°
2026-05-08 12:06 33.36870 131.16747 25586 ft 515 kts 78°
2026-05-08 12:06 33.37633 131.20946 25964 ft 518 kts 78°
2026-05-08 12:06 33.38393 131.25114 26317 ft 520 kts 78°
2026-05-08 12:07 33.39168 131.29353 26664 ft 523 kts 78°
2026-05-08 12:07 33.39944 131.33618 27023 ft 525 kts 78°
2026-05-08 12:07 33.40722 131.37906 27364 ft 528 kts 78°
2026-05-08 12:07 33.41499 131.42207 27720 ft 531 kts 78°
2026-05-08 12:08 33.42280 131.46535 28075 ft 533 kts 78°
2026-05-08 12:08 33.43064 131.50881 28394 ft 536 kts 79°
2026-05-08 12:08 33.43852 131.55258 28674 ft 539 kts 79°
2026-05-08 12:08 33.44640 131.59651 29026 ft 540 kts 79°
2026-05-08 12:09 33.45428 131.64060 29353 ft 543 kts 79°
2026-05-08 12:09 33.46218 131.68481 29648 ft 545 kts 79°
2026-05-08 12:09 33.47012 131.72929 29939 ft 547 kts 79°
2026-05-08 12:09 33.47770 131.77400 30201 ft 549 kts 81°
2026-05-08 12:10 33.48459 131.81897 30441 ft 550 kts 82°
2026-05-08 12:10 33.49096 131.86427 30679 ft 552 kts 82°
2026-05-08 12:10 33.49705 131.90971 30905 ft 553 kts 83°
2026-05-08 12:10 33.50312 131.95530 31135 ft 555 kts 82°
2026-05-08 12:11 33.50931 132.00092 31383 ft 555 kts 82°
2026-05-08 12:11 33.51568 132.04645 31711 ft 554 kts 82°
2026-05-08 12:11 33.52220 132.09189 32034 ft 552 kts 82°
2026-05-08 12:11 33.52876 132.13716 32367 ft 551 kts 81°
2026-05-08 12:12 33.53532 132.18232 32694 ft 550 kts 81°
2026-05-08 12:12 33.54186 132.22772 33017 ft 548 kts 82°
2026-05-08 12:12 33.54827 132.27274 33339 ft 547 kts 82°
2026-05-08 12:12 33.55627 132.31731 33658 ft 547 kts 74°
2026-05-08 12:13 33.56833 132.36068 33964 ft 546 kts 70°
2026-05-08 12:13 33.58093 132.40299 34237 ft 545 kts 69°
2026-05-08 12:13 33.59374 132.44591 34488 ft 545 kts 69°
2026-05-08 12:13 33.60656 132.48891 34748 ft 545 kts 69°
2026-05-08 12:14 33.61930 132.53167 35003 ft 545 kts 69°
2026-05-08 12:14 33.63205 132.57461 35263 ft 545 kts 69°
2026-05-08 12:14 33.64465 132.61742 35411 ft 542 kts 69°
2026-05-08 12:14 33.65718 132.66014 35561 ft 544 kts 69°
2026-05-08 12:15 33.66962 132.70243 36304 ft 531 kts 69°
2026-05-08 12:15 33.68164 132.74365 37016 ft 497 kts 69°
2026-05-08 12:15 33.69311 132.78361 36590 ft 516 kts 69°
2026-05-08 12:15 33.70497 132.82406 36939 ft 512 kts 69°
2026-05-08 12:16 33.72901 132.90498 37031 ft 522 kts 69°
2026-05-08 12:16 33.75359 132.98821 37026 ft 534 kts 69°
2026-05-08 12:17 33.77847 133.07348 37030 ft 543 kts 69°
2026-05-08 12:17 33.80316 133.15873 37017 ft 543 kts 69°
2026-05-08 12:18 33.82798 133.24479 37027 ft 546 kts 70°
2026-05-08 12:18 33.85291 133.33122 37035 ft 546 kts 70°
2026-05-08 12:19 33.87782 133.41749 37017 ft 546 kts 70°
2026-05-08 12:19 33.90267 133.50401 37024 ft 547 kts 70°
2026-05-08 12:20 33.92728 133.59023 37026 ft 547 kts 70°
2026-05-08 12:20 33.95203 133.67715 37021 ft 548 kts 70°
2026-05-08 12:21 33.97676 133.76402 37016 ft 548 kts 70°
2026-05-08 12:21 34.00154 133.85105 37021 ft 549 kts 70°
2026-05-08 12:22 34.02617 133.93831 37023 ft 550 kts 70°
2026-05-08 12:22 34.04593 134.02739 37025 ft 550 kts 78°
2026-05-08 12:23 34.06240 134.11747 37037 ft 550 kts 78°
2026-05-08 12:23 34.07887 134.20715 37043 ft 550 kts 78°
2026-05-08 12:24 34.09536 134.29726 37048 ft 550 kts 78°
2026-05-08 12:24 34.11175 134.38702 37010 ft 550 kts 79°
2026-05-08 12:25 34.12805 134.47720 36995 ft 550 kts 79°
2026-05-08 12:25 34.14429 134.56760 36995 ft 550 kts 79°
2026-05-08 12:26 34.16048 134.65802 36990 ft 551 kts 79°
2026-05-08 12:26 34.17661 134.74843 36993 ft 551 kts 79°
2026-05-08 12:27 34.19263 134.83843 37007 ft 551 kts 79°
2026-05-08 12:27 34.20865 134.92905 37017 ft 551 kts 79°
2026-05-08 12:28 34.22454 135.01966 37009 ft 551 kts 80°
2026-05-08 12:28 34.24003 135.11058 36991 ft 551 kts 80°
2026-05-08 12:29 34.25523 135.20136 36984 ft 551 kts 81°
2026-05-08 12:29 34.27026 135.29156 36984 ft 550 kts 81°
2026-05-08 12:30 34.28546 135.38228 36979 ft 550 kts 81°
2026-05-08 12:30 34.30066 135.47279 36987 ft 549 kts 81°
2026-05-08 12:31 34.31576 135.56349 36979 ft 548 kts 81°
2026-05-08 12:31 34.33065 135.65390 36974 ft 547 kts 81°
2026-05-08 12:32 34.34541 135.74409 36975 ft 546 kts 82°
2026-05-08 12:32 34.36012 135.83414 36971 ft 545 kts 82°
2026-05-08 12:33 34.37478 135.92429 36967 ft 544 kts 82°
2026-05-08 12:33 34.38925 136.01365 36954 ft 544 kts 82°
2026-05-08 12:34 34.40376 136.10367 36945 ft 544 kts 82°
2026-05-08 12:34 34.41825 136.19360 36952 ft 544 kts 82°
2026-05-08 12:35 34.43265 136.28368 36945 ft 544 kts 82°
2026-05-08 12:35 34.44685 136.37370 36933 ft 544 kts 83°
2026-05-08 12:36 34.46104 136.46385 36934 ft 545 kts 83°
2026-05-08 12:36 34.47506 136.55359 36912 ft 546 kts 83°
2026-05-08 12:37 34.48912 136.64397 36904 ft 546 kts 83°
2026-05-08 12:37 34.50323 136.73464 36909 ft 547 kts 83°
2026-05-08 12:38 34.51737 136.82532 36916 ft 547 kts 83°
2026-05-08 12:38 34.53137 136.91603 36910 ft 547 kts 83°
2026-05-08 12:39 34.53911 137.00717 36912 ft 541 kts 95°
2026-05-08 12:39 34.53979 137.09796 36920 ft 541 kts 96°
2026-05-08 12:40 34.54050 137.18920 36917 ft 540 kts 96°
2026-05-08 12:40 34.54111 137.28026 36902 ft 539 kts 96°
2026-05-08 12:41 34.54157 137.37118 36885 ft 539 kts 96°
2026-05-08 12:41 34.54197 137.46204 36879 ft 539 kts 96°
2026-05-08 12:42 34.54242 137.55319 36873 ft 539 kts 96°
2026-05-08 12:42 34.54284 137.64409 36867 ft 539 kts 96°
2026-05-08 12:43 34.54309 137.73496 36851 ft 538 kts 96°
2026-05-08 12:43 34.54318 137.82601 36849 ft 544 kts 96°
2026-05-08 12:44 34.54322 137.91845 36836 ft 551 kts 96°
2026-05-08 12:44 34.54329 138.01150 36817 ft 553 kts 96°
2026-05-08 12:45 34.54336 138.10485 36675 ft 554 kts 96°
2026-05-08 12:45 34.54331 138.15166 35511 ft 555 kts 97°
2026-05-08 12:45 34.54319 138.19852 34059 ft 557 kts 97°
2026-05-08 12:46 34.54300 138.24564 32387 ft 561 kts 97°
2026-05-08 12:46 34.54281 138.29277 31211 ft 554 kts 96°
2026-05-08 12:46 34.54376 138.33867 30292 ft 548 kts 88°
2026-05-08 12:46 34.54985 138.38363 29714 ft 534 kts 78°
2026-05-08 12:47 34.55904 138.42647 29400 ft 514 kts 79°
2026-05-08 12:47 34.56679 138.46819 29275 ft 499 kts 82°
2026-05-08 12:47 34.57317 138.50902 29155 ft 486 kts 83°
2026-05-08 12:47 34.57880 138.54929 29038 ft 485 kts 84°
2026-05-08 12:48 34.58435 138.58999 28477 ft 489 kts 84°
2026-05-08 12:48 34.59015 138.63066 27837 ft 490 kts 83°
2026-05-08 12:48 34.59634 138.67154 27205 ft 491 kts 82°
2026-05-08 12:48 34.60060 138.69852 26794 ft 491 kts 82°
2026-05-08 12:49 34.60935 138.75261 25992 ft 492 kts 82°
2026-05-08 12:49 34.61596 138.79338 25379 ft 492 kts 82°
2026-05-08 12:49 34.62253 138.83425 24797 ft 491 kts 82°
2026-05-08 12:49 34.62681 138.86123 24406 ft 491 kts 82°
2026-05-08 12:50 34.63322 138.90191 23818 ft 490 kts 82°
2026-05-08 12:50 34.63956 138.94258 23198 ft 489 kts 82°
2026-05-08 12:50 34.64588 138.98321 22562 ft 488 kts 82°
2026-05-08 12:50 34.65212 139.02309 21959 ft 474 kts 81°
2026-05-08 12:51 34.65824 139.06203 21387 ft 468 kts 81°
2026-05-08 12:51 34.67030 139.13974 20221 ft 467 kts 81°
2026-05-08 12:51 34.67626 139.17838 19663 ft 465 kts 81°
2026-05-08 12:52 34.68217 139.21679 19238 ft 456 kts 81°
2026-05-08 12:52 34.69362 139.29122 17748 ft 438 kts 81°
2026-05-08 12:52 34.69941 139.32691 17283 ft 423 kts 76°
2026-05-08 12:53 34.71013 139.35950 17181 ft 410 kts 58°
2026-05-08 12:53 34.72669 139.38673 17098 ft 393 kts 41°
2026-05-08 12:53 34.74683 139.40830 17000 ft 383 kts 34°
2026-05-08 12:53 34.76738 139.42900 16908 ft 384 kts 34°
2026-05-08 12:54 34.78801 139.44962 16835 ft 384 kts 34°
2026-05-08 12:54 34.80870 139.47022 16744 ft 383 kts 34°
2026-05-08 12:54 34.82927 139.49072 16652 ft 382 kts 34°
2026-05-08 12:54 34.84981 139.51123 16576 ft 382 kts 34°
2026-05-08 12:55 34.87028 139.53178 16493 ft 381 kts 34°
2026-05-08 12:55 34.89074 139.55236 16411 ft 381 kts 34°
2026-05-08 12:55 34.91114 139.57294 16320 ft 381 kts 34°
2026-05-08 12:55 34.93156 139.59352 16242 ft 380 kts 34°
2026-05-08 12:56 34.95196 139.61412 16153 ft 380 kts 34°
2026-05-08 12:56 34.97228 139.63465 16070 ft 380 kts 34°
2026-05-08 12:56 34.99263 139.65520 15987 ft 379 kts 34°
2026-05-08 12:56 35.01295 139.67570 15900 ft 379 kts 34°
2026-05-08 12:57 35.03328 139.69618 15816 ft 378 kts 34°
2026-05-08 12:57 35.05357 139.71661 15735 ft 378 kts 34°
2026-05-08 12:57 35.07407 139.73727 15711 ft 391 kts 35°
2026-05-08 12:57 35.09509 139.75846 15719 ft 400 kts 35°
2026-05-08 12:58 35.11665 139.78028 15715 ft 403 kts 35°
2026-05-08 12:58 35.13822 139.80219 15709 ft 403 kts 35°
2026-05-08 12:58 35.15980 139.82411 15706 ft 403 kts 35°
2026-05-08 12:58 35.18139 139.84603 15703 ft 403 kts 35°
2026-05-08 12:59 35.20294 139.86794 15702 ft 403 kts 35°
2026-05-08 12:59 35.22466 139.89004 15703 ft 418 kts 35°
2026-05-08 12:59 35.24804 139.91367 15690 ft 452 kts 36°
2026-05-08 12:59 35.27302 139.93891 15687 ft 479 kts 36°
2026-05-08 13:00 35.29912 139.96539 15327 ft 488 kts 36°
2026-05-08 13:00 35.32499 139.99187 14694 ft 483 kts 36°
2026-05-08 13:00 35.35057 140.01816 14071 ft 478 kts 36°
2026-05-08 13:00 35.37593 140.04423 13677 ft 473 kts 36°
2026-05-08 13:01 35.40107 140.07003 13128 ft 470 kts 36°
2026-05-08 13:01 35.42596 140.09554 12494 ft 464 kts 37°
2026-05-08 13:01 35.45060 140.12078 11874 ft 457 kts 37°
2026-05-08 13:01 35.47484 140.14562 11267 ft 451 kts 37°
2026-05-08 13:02 35.49958 140.16858 10652 ft 439 kts 25°
2026-05-08 13:02 35.52764 140.18029 10135 ft 417 kts
2026-05-08 13:02 35.55574 140.17749 10037 ft 400 kts 337°
2026-05-08 13:02 35.58030 140.16321 9691 ft 387 kts 321°
2026-05-08 13:03 35.60248 140.14509 8755 ft 378 kts 319°
2026-05-08 13:03 35.62386 140.12655 8056 ft 374 kts 318°
2026-05-08 13:03 35.64481 140.10791 7347 ft 370 kts 318°
2026-05-08 13:03 35.66553 140.08940 6663 ft 367 kts 319°
2026-05-08 13:04 35.68599 140.07128 6045 ft 351 kts 320°
2026-05-08 13:04 35.70504 140.05471 5701 ft 321 kts 320°
2026-05-08 13:04 35.72246 140.03972 5541 ft 290 kts 320°
2026-05-08 13:04 35.73821 140.02619 5409 ft 263 kts 320°
2026-05-08 13:05 35.75256 140.01385 5296 ft 240 kts 319°
2026-05-08 13:05 35.76558 140.00261 5193 ft 218 kts 319°
2026-05-08 13:05 35.77579 139.99062 5094 ft 190 kts 294°
2026-05-08 13:05 35.77931 139.97595 5038 ft 176 kts 269°
2026-05-08 13:06 35.77668 139.96147 4871 ft 175 kts 243°
2026-05-08 13:06 35.76857 139.95030 4688 ft 179 kts 219°
2026-05-08 13:06 35.75830 139.94146 4472 ft 179 kts 219°
2026-05-08 13:06 35.74811 139.93271 4241 ft 178 kts 219°
2026-05-08 13:07 35.73797 139.92398 4007 ft 177 kts 219°
2026-05-08 13:07 35.72786 139.91526 3767 ft 177 kts 219°
2026-05-08 13:07 35.71784 139.90661 3540 ft 176 kts 219°
2026-05-08 13:07 35.70782 139.89797 3314 ft 175 kts 219°
2026-05-08 13:08 35.69787 139.88938 3084 ft 175 kts 219°
2026-05-08 13:08 35.68793 139.88081 2860 ft 174 kts 219°
2026-05-08 13:08 35.67806 139.87231 2630 ft 171 kts 219°
2026-05-08 13:08 35.66836 139.86395 2408 ft 169 kts 219°
2026-05-08 13:09 35.65878 139.85569 2184 ft 168 kts 218°
2026-05-08 13:09 35.64929 139.84752 1967 ft 165 kts 218°
2026-05-08 13:09 35.64000 139.83952 1747 ft 157 kts 217°
2026-05-08 13:09 35.63143 139.83216 1545 ft 143 kts 217°
2026-05-08 13:10 35.62382 139.82561 1386 ft 128 kts 217°
2026-05-08 13:10 35.61677 139.81953 1213 ft 124 kts 217°
2026-05-08 13:10 35.60963 139.81338 1044 ft 123 kts 217°
2026-05-08 13:10 35.60255 139.80729 893 ft 125 kts 218°
2026-05-08 13:11 35.59553 139.80125 740 ft 124 kts 216°
2026-05-08 13:11 35.58842 139.79514 583 ft 126 kts 216°
2026-05-08 13:11 35.58126 139.78899 412 ft 125 kts 216°
2026-05-08 13:11 35.57416 139.78288 266 ft 123 kts 215°
2026-05-08 13:12 35.56733 139.77691 57 ft 118 kts 213°
2026-05-08 13:12 35.56090 139.77151 31 ft 101 kts 213°
2026-05-08 13:12 35.55512 139.76685 153 ft 113 kts 214°
2026-05-08 13:12 35.54793 139.76078 712 ft 131 kts 214°
2026-05-08 13:13 35.53995 139.75479 1595 ft 134 kts 214°
2026-05-08 13:13 35.53329 139.74626 2204 ft 152 kts 248°
2026-05-08 13:13 35.53257 139.73207 2528 ft 181 kts 273°
2026-05-08 13:13 35.53706 139.71697 2960 ft 205 kts 304°
2026-05-08 13:14 35.54918 139.70637 3489 ft 230 kts 331°
2026-05-08 13:14 35.56507 139.69915 3705 ft 247 kts 336°
2026-05-08 13:14 35.58183 139.69351 3262 ft 255 kts 351°
2026-05-08 13:14 35.59955 139.69699 2765 ft 266 kts 21°
2026-05-08 13:15 35.61589 139.70859 2165 ft 275 kts 31°
2026-05-08 13:15 35.63170 139.72170 2008 ft 280 kts 32°
2026-05-08 13:15 35.64784 139.73520 1997 ft 282 kts 32°
2026-05-08 13:15 35.66409 139.74879 2004 ft 282 kts 32°
2026-05-08 13:16 35.68006 139.76216 2001 ft 268 kts 33°
2026-05-08 13:16 35.69351 139.77631 1960 ft 244 kts 51°
2026-05-08 13:16 35.70049 139.79423 1887 ft 226 kts 82°
2026-05-08 13:16 35.69979 139.81275 1865 ft 211 kts 115°
2026-05-08 13:17 35.69363 139.82731 1921 ft 178 kts 133°
2026-05-08 13:17 35.68658 139.83917 1753 ft 165 kts 140°
2026-05-08 13:17 35.67793 139.84676 1591 ft 141 kts 166°
2026-05-08 13:17 35.66886 139.84919 1552 ft 129 kts 187°
2026-05-08 13:18 35.66005 139.84885 1498 ft 125 kts 194°
2026-05-08 13:18 35.65165 139.84703 1452 ft 120 kts 205°
2026-05-08 13:18 35.64417 139.84289 1410 ft 117 kts 212°
2026-05-08 13:18 35.63720 139.83777 1383 ft 116 kts 218°
2026-05-08 13:19 35.63058 139.83210 1370 ft 116 kts 220°
2026-05-08 13:19 35.62428 139.82588 1362 ft 116 kts 223°
2026-05-08 13:19 35.61831 139.81917 1349 ft 116 kts 222°
2026-05-08 13:19 35.61162 139.81341 1251 ft 119 kts 214°
2026-05-08 13:20 35.60439 139.80824 1041 ft 122 kts 214°
2026-05-08 13:20 35.59712 139.80280 868 ft 121 kts 216°
2026-05-08 13:20 35.59046 139.79673 729 ft 119 kts 217°
2026-05-08 13:20 35.58380 139.79078 510 ft 122 kts 217°
2026-05-08 13:21 35.57676 139.78494 314 ft 121 kts 215°
2026-05-08 13:21 35.56996 139.77910 147 ft 117 kts 215°
2026-05-08 13:21 35.56341 139.77358 29 ft 108 kts 214°
2026-05-08 13:21 35.55826 139.76922 25 ft 66 kts 216°
2026-05-08 13:22 35.55586 139.76715 26 ft 24 kts 214°
2026-05-08 13:22 35.55451 139.76644 25 ft 19 kts 193°
2026-05-08 13:22 35.55328 139.76617 23 ft 17 kts 190°
2026-05-08 13:22 35.55245 139.76601 23 ft 0 kts 188°
2026-05-08 13:23 35.55228 139.76598 23 ft 9 kts 184°
2026-05-08 13:24 35.55144 139.76643 24 ft 18 kts 109°
2026-05-08 13:24 35.55184 139.76778 23 ft 17 kts 60°
2026-05-08 13:24 35.55241 139.76896 25 ft 15 kts 59°
2026-05-08 13:24 35.55292 139.77005 24 ft 14 kts 60°
2026-05-08 13:25 35.55339 139.77106 23 ft 13 kts 62°
2026-05-08 13:25 35.55348 139.77135 23 ft 0 kts 75°
2026-05-08 13:25 35.55349 139.77144 23 ft 6 kts 79°
2026-05-08 13:25 35.55318 139.77240 23 ft 13 kts 121°
2026-05-08 13:26 35.55268 139.77342 23 ft 16 kts 124°
2026-05-08 13:26 35.55229 139.77468 23 ft 16 kts 79°
2026-05-08 13:26 35.55273 139.77585 23 ft 13 kts 58°
2026-05-08 13:26 35.55284 139.77606 25 ft 0 kts 58°
2026-05-08 13:27 35.55290 139.77635 23 ft 12 kts 87°
2026-05-08 13:27 35.55221 139.77712 23 ft 15 kts 149°
2026-05-08 13:27 35.55098 139.77801 24 ft 22 kts 149°
2026-05-08 13:28 35.54959 139.77898 23 ft 23 kts 149°
2026-05-08 13:28 35.54825 139.77992 25 ft 22 kts 152°
2026-05-08 13:28 35.54741 139.78054 25 ft 19 kts 147°
2026-05-08 13:28 35.54593 139.78171 23 ft 17 kts 118°
2026-05-08 13:29 35.54593 139.78293 23 ft 11 kts 85°
2026-05-08 13:29 35.54619 139.78365 23 ft 6 kts 56°
2026-05-08 13:29 35.54646 139.78416 26 ft 7 kts 58°
2026-05-08 13:29 35.54656 139.78436 25 ft 0 kts 58°